sat.trackr.live / text

‹ back to catalog

STARLINK-4600

NORAD 53628 · 2022-104AS

PAYLOAD ACTIVE UNKNOWN

§ Identity

Operator
Country
US
Launch date
2022-08-28
Launch site
AFETR
Launch vehicle
Mass (kg)
RCS (m²)

Purposes: comms

External: N2YO · Heavens-Above · Gunter

§ Orbital elements

Epoch: 2026-09-20T14:40:57.514656Z

Period
93.79 min
Inclination
53.1604°
Eccentricity
0.0001203
Mean motion
15.35402598 rev/d
Perigee alt
458.9 km
Apogee alt
460.5 km
Semi-major
6,837.9 km
B*
2.3068e-5
RAAN
67.0537°
Arg perigee
89.5573°
Mean anomaly
270.5568°
Rev number
22,534

§ Raw data

STARLINK-46001 53628U 22104AS  26263.61177679  .00000424  00000+0  23068-4 0  99982 53628  53.1604  67.0537 0001203  89.5573 270.5568 15.35402598225347

JSON: /api/v1/satellites/53628 · /tle

For live sub-satellite position, see the globe view (requires WebGL).

§ Visibility from observer

Set your observer location to see the next 7 days of passes ≥ 10°. The values pass through the URL so the page stays shareable.

No JS? Fill the form by hand. The geolocation button needs JavaScript.